Location: Ajisawe
(8.4333°N, 4.3833°E)
Time: 14:10:23
(UTC+00:00)

Courier 1B Rocket - Pass Details

Date: 23 April 2021
Orbit: 920 x 1202 km, 28.2° (Epoch: 07 May)

Event Time Altitude Azimuth Distance (km) Brightness Sun altitude
Rises 04:15:08 0° 256° (WSW) 4,092 - -18.7°
Reaches altitude 10° 04:20:55 10° 223° (SW) 3,121 - -17.3°
Exits shadow 04:22:37 11° 210° (SSW) 3,036 7.2 -16.9°
Maximum altitude 04:22:53 11° 208° (SSW) 3,033 7.2 -16.9°
Drops below altitude 10° 04:24:52 10° 193° (SSW) 3,100 7.3 -16.4°
Sets 04:30:34 0° 160° (SSE) 4,011 8.3 -15.0°
